Regional Weather Roundup
Issued by NWS

Home | Current Version | Previous Version | Graphics & Text | Print | Product List | Glossary On
Versions: 1 2 3 4 5 6 7 8 9 10 11 12 13 14 15 16 17 18 19 20 21 22 23 24 25 26 27 28 29 30 31 32 33 34 35 36 37 38 39 40 41 42 43 44 45 46 47 48 49 50
000
ASUS45 KCYS 161310
RWRWY

WYOMING REGIONAL WEATHER ROUNDUP
NATIONAL WEATHER SERVICE CHEYENNE WY
700 AM MDT TUE SEP 16 2014

NOTE:  "FAIR" INDICATES FEW OR NO CLOUDS BELOW 12,000 FEET
WITH NO SIGNIFICANT WEATHER AND/OR OBSTRUCTIONS TO VISIBILITY.

WYZ001-161400-
YELLOWSTONE NATIONAL PARK

CITY           SKY/WX    TMP DP  RH WIND       PRES   REMARKS
LK YELLOWSTONE   N/A     33  30  88 CALM      30.36R
W YELLOWSTONE  NOT AVBL

$$
WYZ002>013-054>058-071-098>099-161400-
NORTHERN WYOMING

CITY           SKY/WX    TMP DP  RH WIND       PRES   REMARKS
JACKSON        CLEAR     36  30  80 VRB6      30.30R WCI  31
CODY           PTCLDY    55  36  47 S10       30.13R
GREYBULL       PTCLDY    44  42  93 CALM      30.11S
WORLAND        PTCLDY    44  41  89 CALM      30.12S
SHERIDAN       CLEAR     45  36  70 N6        30.06R
BUFFALO        CLEAR     55  34  45 W10       30.13S
GILLETTE       CLEAR     46  40  79 CALM      30.09R
HULETT         FAIR      46  41  81 MISG      30.09
NEWCASTLE      FAIR      48  41  76 N9        30.10

$$
WYZ014>020-022>026-101>103-161400-
CENTRAL WYOMING

CITY           SKY/WX    TMP DP  RH WIND       PRES   REMARKS
BIG PINEY      PTCLDY    37  25  61 NE6       30.33S WCI  32
PINEDALE       MOSUNNY   32  28  86 CALM      30.34S
DUBOIS         FAIR      41  28  60 NW7       30.30R
LANDER         CLEAR     52  33  48 NW3       30.19S
RIVERTON       PTCLDY    49  32  52 NW8       30.21R
CASPER         CLEAR     46  37  71 SW6       30.19R
DOUGLAS        PTCLDY    50  42  74 N9        30.17R

$$
WYZ021-027>030-104>119-161400-
SOUTHERN WYOMING

CITY           SKY/WX    TMP DP  RH WIND       PRES   REMARKS
EVANSTON       MOCLDY    53  31  42 SE5       30.31R
KEMMERER       MOSUNNY   43  32  65 N10       30.32S
FORT BRIDGER   FAIR      53  30  41 CALM      30.33R
ROCK SPRINGS   PTCLDY    49  32  52 CALM      30.30S
DIXON          FAIR      46  40  81 CALM      30.33S
RAWLINS        CLEAR     44  32  62 CALM      30.30R
SARATOGA       FAIR      43  36  75 S5        30.32S
LARAMIE        CLEAR     44  36  73 W9        30.30R
CHEYENNE       PTCLDY    59  37  44 W16       30.22R
TORRINGTON     CLEAR     47  46  97 NW6       30.10R
PINE BLUFFS    FAIR      45  43  93 S7        30.15F

$$


USA.gov is the U.S. government's official web portal to all federal, state and local government web resources and services.